Location: Dompnac
(44.5644°N, 4.1026°E)
Time: 11:42:08
(UTC+00:00)

Lacrosse 5 rocket - Pass Details

Date: 19 September 2020
Orbit: 460 x 636 km, 57.0° (Epoch: 29 October)

Event Time Altitude Azimuth Distance (km) Brightness Sun altitude
Rises 21:20:53 0° 310° (NW) 2,845 6.0 -35.3°
Reaches altitude 10° 21:23:36 10° 327° (NNW) 1,969 4.9 -35.6°
Enters shadow 21:25:01 16° 342° (NNW) 1,618 4.2 -35.8°
